DW0417 Weather Reports


time (UTC)temp
F
wind
direction
speed
knots
gust
knots
rain 1hr
in
rain 24hr
in
rain mn
in
humidity
%
barometer
mb
20260510140427 51 293 2.6 5.2 0.00 0.00 0.00 84 1023.6
20260510135426 50 294 2.6 6.1 0.00 0.00 0.00 84 1023.7
20260510134426 50 291 2.6 6.1 0.00 0.00 0.00 84 1023.7
20260510133421 50 267 2.6 6.1 0.00 0.00 0.00 86 1023.9
20260510132421 49 349 3.5 6.1 0.00 0.00 0.00 87 1024.0
20260510131422 48 359 2.6 7.0 0.00 0.00 0.00 87 1023.9
20260510130420 49 347 3.5 7.0 0.00 0.00 0.00 87 1023.7
20260510125859 49 345 2.6 4.3 0.00 0.00 0.00 87 1023.9
20260510124419 48 355 2.6 5.2 0.00 0.00 0.00 88 1023.9
20260510123419 47 302 1.7 3.5 0.00 0.00 0.00 89 1024.0
20260510122420 47 248 0.0 0.9 0.00 0.00 0.00 89 1024.2
20260510121421 47 271 0.9 2.6 0.00 0.00 0.00 89 1024.2
20260510120415 47 225 0.9 2.6 0.00 0.00 0.00 89 1024.1
20260510115414 47 221 0.9 4.3 0.00 0.00 0.00 89 1024.1
20260510114414 47 179 0.9 4.3 0.00 0.00 0.00 89 1024.0
20260510113414 47 231 1.7 3.5 0.00 0.00 0.00 89 1023.9
20260510112413 47 200 0.9 4.3 0.00 0.00 0.00 89 1023.7
20260510111413 48 231 0.9 4.3 0.00 0.00 0.00 89 1023.5
20260510110859 48 229 0.9 2.6 0.00 0.00 0.00 89 1023.4
20260510105414 48 220 0.9 3.5 0.00 0.00 0.00 88 1023.3
20260510104414 48 182 0.9 5.2 0.00 0.00 0.00 87 1023.5
20260510103408 48 233 0.9 3.5 0.00 0.00 0.00 87 1023.3
20260510102407 48 186 0.9 2.6 0.00 0.00 0.00 88 1023.2
20260510101408 48 170 0.0 1.7 0.00 0.00 0.00 88 1023.2
20260510100407 48 224 0.0 0.9 0.00 0.00 0.00 87 1023.2
20260510095407 48 254 0.0 0.9 0.00 0.00 0.00 87 1022.9
20260510094406 48 254 0.0 0.0 0.00 0.00 0.00 87 1022.8
20260510093408 48 254 0.0 0.0 0.00 0.00 0.00 88 1022.8
20260510092409 48 254 0.0 0.0 0.00 0.00 0.00 87 1022.7
20260510091408 49 254 0.0 0.0 0.00 0.00 0.00 88 1022.7
20260510090401 48 254 0.0 0.9 0.00 0.00 0.00 88 1022.6
20260510085402 48 254 0.0 0.0 0.00 0.00 0.00 88 1022.3
20260510084844 48 254 0.0 0.0 0.00 0.00 0.00 89 1022.2
20260510083402 49 254 0.0 0.0 0.00 0.00 0.00 89 1022.1
20260510082841 48 254 0.0 0.0 0.00 0.00 0.00 88 1022.1
20260510081401 49 254 0.0 0.0 0.00 0.00 0.00 88 1022.1
20260510080839 49 254 0.0 0.0 0.00 0.00 0.00 87 1022.2
20260510075402 49 254 0.0 0.9 0.00 0.00 0.00 86 1022.2
20260510074402 49 254 0.0 0.9 0.00 0.00 0.00 86 1022.1
20260510073356 49 254 1.7 4.3 0.00 0.00 0.00 85 1022.1
20260510072356 49 302 2.6 4.3 0.00 0.00 0.00 85 1022.1
20260510071355 49 288 2.6 3.5 0.00 0.00 0.00 85 1022.2
20260510070355 49 278 0.9 1.7 0.00 0.00 0.00 86 1022.5
20260510065356 49 15 1.7 5.2 0.00 0.00 0.00 85 1022.5
20260510064353 49 35 2.6 4.3 0.00 0.00 0.00 86 1022.5
20260510063353 49 20 1.7 2.6 0.00 0.00 0.00 88 1022.3
20260510062834 48 10 0.9 2.6 0.00 0.00 0.00 89 1022.3
20260510062322 48 266 0.0 1.7 0.00 0.00 0.00 88 1022.5
20260510060827 48 278 0.0 0.0 0.00 0.00 0.00 88 1022.6
20260510055306 48 278 0.0 0.9 0.00 0.07 0.07 88 1022.6
20260510054304 48 278 0.9 3.5 0.01 0.07 0.07 88 1022.7
20260510053303 48 297 1.7 3.5 0.02 0.07 0.07 88 1022.6
20260510052709 48 30 1.7 3.5 0.05 0.07 0.07 87 1022.8
20260510052442 48 4 0.9 1.7 0.03 0.07 0.07 88 1022.7
20260510050304 48 215 0.9 3.5 0.07 0.07 0.07 88 1022.1
20260510045306 49 174 0.0 0.0 0.07 0.07 0.07 87 1022.8
20260510044747 49 174 0.0 0.0 0.06 0.06 0.06 88 1022.9
20260510043303 49 174 0.0 0.0 0.05 0.05 0.05 86 1022.7
20260510042740 50 174 0.0 0.9 0.04 0.04 0.04 83 1022.5
20260510041303 52 85 0.9 1.7 0.02 0.02 0.02 75 1022.9
20260510040304 52 86 0.9 3.5 0.00 0.00 0.00 70 1022.7
20260510035306 53 96 0.0 1.7 0.00 0.00 0.00 69 1022.5
20260510034301 53 95 0.9 3.5 0.00 0.00 0.00 68 1022.5
20260510033757 52 290 0.0 1.7 0.00 0.00 0.00 69 1022.1
20260510032740 52 272 0.9 3.5 0.00 0.00 0.00 69 1021.9
20260510031258 52 212 2.6 6.1 0.00 0.00 0.00 69 1021.4
20260510030258 52 136 2.6 7.0 0.00 0.00 0.00 69 1021.6
20260510025259 52 162 4.3 10.4 0.00 0.00 0.00 69 1020.9
20260510024258 53 120 5.2 12.2 0.00 0.00 0.00 68 1020.6
20260510023258 53 191 5.2 13.9 0.00 0.00 0.00 68 1020.1
20260510022258 53 174 4.3 12.2 0.00 0.00 0.00 67 1019.9
20260510021258 54 187 6.1 15.6 0.00 0.00 0.00 67 1019.5
20260510020258 54 188 7.8 16.5 0.00 0.00 0.00 68 1019.3
20260510015731 54 184 7.0 15.6 0.00 0.00 0.00 67 1019.0
20260510014258 55 168 7.0 20.0 0.00 0.00 0.00 67 1019.0
20260510013258 55 178 8.7 19.1 0.00 0.00 0.00 66 1018.5
20260510012300 55 176 8.7 21.7 0.00 0.00 0.00 65 1017.7
20260510011258 56 174 10.4 22.6 0.00 0.00 0.00 64 1017.0
20260510010258 57 193 10.4 25.2 0.00 0.00 0.00 62 1016.2
20260510005259 57 151 13.9 23.5 0.00 0.00 0.00 61 1015.7
20260510004256 58 162 14.8 27.8 0.00 0.00 0.00 60 1015.1
20260510003256 60 123 14.8 29.5 0.00 0.00 0.00 56 1014.5
20260510002256 64 179 13.0 29.5 0.00 0.00 0.00 48 1013.8
20260510001257 75 225 2.6 7.8 0.00 0.00 0.00 27 1012.7
20260510000256 75 178 1.7 7.0 0.00 0.00 0.00 25 1012.2
20260509235254 75 288 2.6 7.0 0.00 0.00 0.00 26 1012.0
20260509234255 75 278 1.7 5.2 0.00 0.00 0.00 26 1012.0
20260509233253 76 179 2.6 9.6 0.00 0.00 0.00 27 1011.6
20260509232252 75 221 3.5 8.7 0.00 0.00 0.00 27 1011.5
20260509231253 75 221 3.5 7.8 0.00 0.00 0.00 26 1011.4
20260509230253 76 237 2.6 7.0 0.00 0.00 0.00 26 1011.3
20260509225253 76 240 2.6 7.8 0.00 0.00 0.00 27 1011.3
20260509224253 76 195 4.3 9.6 0.00 0.00 0.00 25 1011.1
20260509223252 76 181 3.5 9.6 0.00 0.00 0.00 25 1011.0
20260509222251 76 207 4.3 11.3 0.00 0.00 0.00 25 1011.0
20260509221253 76 249 3.5 9.6 0.00 0.00 0.00 24 1011.0
20260509220727 76 207 3.5 10.4 0.00 0.00 0.00 24 1011.0
20260509215247 75 177 3.5 9.6 0.00 0.00 0.00 25 1011.1
20260509214247 75 228 3.5 11.3 0.00 0.00 0.00 25 1011.1
20260509213247 76 239 2.6 7.0 0.00 0.00 0.00 25 1011.3
20260509212246 76 250 3.5 9.6 0.00 0.00 0.00 24 1011.4
20260509211247 75 267 3.5 9.6 0.00 0.00 0.00 25 1011.5
20260509210247 75 285 2.6 7.0 0.00 0.00 0.00 25 1011.6
20260509205246 75 187 3.5 9.6 0.00 0.00 0.00 24 1011.6
20260509204246 75 200 4.3 9.6 0.00 0.00 0.00 25 1011.7
20260509203247 76 297 3.5 13.0 0.00 0.00 0.00 25 1011.7
20260509202244 75 262 2.6 9.6 0.00 0.00 0.00 25 1011.8
20260509201243 74 153 3.5 7.8 0.00 0.00 0.00 25 1012.1
20260509200244 75 203 2.6 8.7 0.00 0.00 0.00 25 1012.2
20260509195243 74 290 3.5 10.4 0.00 0.00 0.00 25 1012.3
20260509194244 75 200 2.6 8.7 0.00 0.00 0.00 24 1012.3
20260509193725 76 222 2.6 10.4 0.00 0.00 0.00 26 1012.3
20260509192721 74 230 4.3 10.4 0.00 0.00 0.00 26 1012.4
20260509191243 75 268 3.5 13.0 0.00 0.00 0.00 29 1012.3
20260509190244 75 306 3.5 8.7 0.00 0.00 0.00 27 1012.3
20260509185245 75 181 2.6 7.0 0.00 0.00 0.00 26 1012.4
20260509184728 74 276 3.5 12.2 0.00 0.00 0.00 28 1012.5
20260509183245 75 158 3.5 8.7 0.00 0.00 0.00 27 1012.5
20260509182244 74 290 4.3 9.6 0.00 0.00 0.00 24 1012.5
20260509181244 75 227 2.6 12.2 0.00 0.00 0.00 26 1012.4
20260509180245 74 299 2.6 7.8 0.00 0.00 0.00 26 1012.7
20260509175244 73 278 3.5 8.7 0.00 0.00 0.00 26 1012.7
20260509174244 74 240 2.6 7.0 0.00 0.00 0.00 24 1012.5
20260509173243 73 212 2.6 7.8 0.00 0.00 0.00 23 1012.7
20260509172245 74 173 2.6 9.6 0.00 0.00 0.00 24 1012.7
20260509171245 73 98 3.5 10.4 0.00 0.00 0.00 24 1012.7
20260509170244 73 300 2.6 8.7 0.00 0.00 0.00 25 1012.5
20260509165244 73 204 2.6 6.1 0.00 0.00 0.00 22 1012.5
20260509164244 73 202 0.9 5.2 0.00 0.00 0.00 21 1012.5
20260509163245 72 277 4.3 8.7 0.00 0.00 0.00 24 1012.5
20260509162717 72 294 4.3 7.0 0.00 0.00 0.00 23 1012.4
20260509161244 71 284 5.2 9.6 0.00 0.00 0.00 27 1012.3
20260509160245 70 284 4.3 12.2 0.00 0.00 0.00 28 1012.4
20260509155243 70 286 3.5 8.7 0.00 0.00 0.00 28 1012.3
20260509154244 69 251 5.2 11.3 0.00 0.00 0.00 31 1012.3
20260509153244 69 275 5.2 11.3 0.00 0.00 0.00 35 1012.5
20260509152239 68 295 2.6 7.0 0.00 0.00 0.00 37 1012.5
20260509151713 68 278 0.9 3.5 0.00 0.00 0.00 31 1012.5
20260509150236 67 259 0.9 2.6 0.00 0.00 0.00 35 1012.7
20260509145237 67 200 0.0 2.6 0.00 0.00 0.00 36 1012.7
20260509144236 65 111 0.0 2.6 0.00 0.00 0.00 29 1012.7
20260509143237 63 187 0.0 1.7 0.00 0.00 0.00 38 1012.8
20260509142716 60 162 0.0 1.7 0.00 0.00 0.00 46 1012.8
20260509141235 57 199 0.0 0.9 0.00 0.00 0.00 62 1012.9